This demonstration page uses our WeatherBlox Daily Observations layout. Learn more.

Left ArrowRight Arrow

38.83388, -104.82136

Hourly Observations for January 14, 2015

Temp ( °F °C ) Dew Point ( °F °C ) Humidity (%) Winds ( mph kmh ) Pressure ( in mb ) Visibility ( mi km ) Precip ( " mm )
12:05 am 00:05 Mostly Cloudy with Light Snow 25 -4 25 -4 100 100 N 3 6 30.39 1029 2 3 N/A
12:20 am 00:20 Mostly Cloudy with Light Snow Showers 25 -4 25 -4 100 100 NNW 3 6 30.39 1029 4 6 N/A
12:45 am 00:45 Mostly Cloudy with Light Snow Showers 25 -4 25 -4 100 100 VRB 1 2 30.39 1029 1 2 N/A
1:41 am 01:41 Mostly Cloudy with Light Snow Showers 25 -4 25 -4 100 100 VRB 2 4 30.39 1029 1 2 N/A
1:42 am 01:42 Mostly Cloudy 25 -4 25 -4 100 100 NE 3 6 30.39 1029 7 11 N/A
1:47 am 01:47 Mostly Cloudy 25 -4 25 -4 100 100 VRB 3 6 30.39 1029 1 1 N/A
1:48 am 01:48 Mostly Cloudy with Light Snow Showers 25 -4 23 -5 93 93 VRB 3 6 30.39 1029 1 1 N/A
1:56 am 01:56 Mostly Cloudy with Light Snow Showers 24 -4.7 23 -4.8 99 99 NNE 3 6 30.34 1027 7 11 N/A
2:09 am 02:09 Mostly Cloudy with Light Snow Showers 23 -5 23 -5 100 100 NNE 2 4 30.42 1030 4 6 N/A
2:11 am 02:11 Mostly Cloudy with Mist and Fog 23 -5 23 -5 100 100 NNE 1 2 30.42 1030 4 6 N/A
2:21 am 02:21 Cloudy with Mist and Fog 23 -5 23 -5 100 100 ENE 1 2 30.42 1030 4 6 N/A
2:56 am 02:56 Cloudy with Mist and Fog 24 -4.7 23 -5.1 97 97 N 1 2 30.33 1027 4 6 N/A
3:06 am 03:06 Cloudy with Mist and Fog 23 -5 23 -5 100 100 VRB 1 2 30.36 1028 4 6 N/A
3:56 am 03:56 Cloudy with Mist and Fog 23 -4.9 23 -5.1 99 99 ESE 1 2 30.33 1027 3 5 N/A
4:21 am 04:21 Cloudy with Mist and Fog 23 -5 23 -5 100 100 NE 1 2 30.36 1028 3 5 N/A
4:36 am 04:36 Cloudy with Mist and Fog 23 -5 23 -5 100 100 SE 2 4 30.36 1028 3 4 N/A
4:56 am 04:56 Cloudy with Mist and Fog 23 -5.1 23 -5.2 99 99 VRB 5 7 30.30 1026 1 2 0.00 0.00
5:56 am 05:56 Mostly Cloudy with Freezing Fog 23 -5 23 -5.1 99 99 ESE 3 6 30.28 1025 5 8 N/A
6:56 am 06:56 Mostly Cloudy with Freezing Fog 22 -5.4 22 -5.6 99 99 NW 5 7 30.29 1026 3 5 N/A
7:56 am 07:56 Mostly Cloudy with Freezing Fog 22 -5.6 22 -5.8 99 99 N 5 7 30.29 1026 1 2 N/A
8:56 am 08:56 Mostly Cloudy with Freezing Fog 22 -5.5 22 -5.7 99 99 NW 6 9 30.32 1027 1 2 N/A
10:11 am 10:11 Mostly Cloudy with Mist and Fog 23 -5 23 -5 100 100 ESE 5 7 30.36 1028 3 5 N/A
10:26 am 10:26 Mostly Cloudy with Mist and Fog 23 -5 23 -5 100 100 SE 6 9 30.36 1028 5 8 N/A
10:56 am 10:56 Mostly Cloudy with Freezing Fog 23 -5 23 -5.1 99 99 ESE 3 6 30.31 1026 5 8 N/A
11:56 am 11:56 Mostly Cloudy with Freezing Fog 24 -4.5 24 -4.5 100 100 ENE 3 6 30.25 1025 0 0 N/A
12:56 pm 12:56 Mostly Cloudy with Fog 24 -4.2 24 -4.2 100 100 VRB 2 4 30.22 1023 1 2 N/A
1:56 pm 13:56 Mostly Cloudy with Fog 26 -3.5 26 -3.5 100 100 NE 1 2 30.21 1023 1 2 N/A
2:56 pm 14:56 Mostly Cloudy with Fog 26 -3.2 26 -3.1 100 100 VRB 1 2 30.22 1023 1 2 N/A
3:41 pm 15:41 Partly Cloudy with Freezing Fog 27 -3 27 -3 100 100 WNW 2 4 30.21 1023 1 1 N/A
3:56 pm 15:56 Partly Cloudy with Freezing Fog 26 -3.4 26 -3.4 100 100 ESE 2 4 30.23 1024 1 2 N/A
4:01 pm 16:01 Mostly Cloudy with Freezing Fog 27 -3 27 -3 100 100 VRB 1 2 30.21 1023 1 2 N/A
4:21 pm 16:21 Partly Cloudy with Freezing Fog 27 -3 27 -3 100 100 NW 7 11 30.21 1023 10 16 N/A
4:56 pm 16:56 Mostly Cloudy 27 -2.6 26 -3.3 95 95 VRB 1 2 30.24 1024 10 16 N/A
5:56 pm 17:56 Mostly Clear 34 1.2 22 -5.6 61 61 NW 9 15 30.23 1024 10 16 N/A
6:56 pm 18:56 Clear 34 1.2 14 -10.1 43 43 NW 12 19 30.24 1024 10 16 N/A
7:56 pm 19:56 Clear 36 2.2 9 -12.6 33 33 NW 12 19 30.24 1024 10 16 N/A
8:56 pm 20:56 Clear 35 1.9 13 -10.4 40 40 NNW 12 19 30.24 1024 10 16 N/A
9:56 pm 21:56 Clear 33 0.5 15 -9.2 49 49 VRB 2 4 30.27 1025 10 16 N/A
10:56 pm 22:56 Clear 32 0 17 -8.3 54 54 WNW 3 6 30.29 1026 10 16 N/A
11:56 pm 23:56 Clear 36 2.4 16 -9.1 43 43 VRB 3 6 30.26 1025 10 16 N/A

Powered by AerisWeather